Weather History for Montreal Mirabel, QC

Change the Weather History Date:

Monday, January 21, 2013

  Actual Average Record
Temperature  
Mean Temperature -4 °F -  
Max Temperature 1 °F 15 °F 33 °F (2006)
Min Temperature -9 °F 0 °F -22 °F (2005)
Degree Days  
Heating Degree Days 69    
Moisture  
Dew Point -13 °F    
Average Humidity 66    
Maximum Humidity 77    
Minimum Humidity 55    
Precipitation  
Precipitation 0.00 in - - ()
Sea Level Pressure  
Sea Level Pressure 30.04 in    
Wind  
Wind Speed 4 mph ()    
Max Wind Speed 9 mph    
Max Gust Speed -    
Visibility 15.0 miles    
Events      
Averages and records for this station are not official NWS values.
T = Trace of Precipitation, MM = Missing Value Source: Averaged Metar Reports

Daily Weather History Graph

Daily Weather History Graph

Search for Another Location

Airport:

Trip Planner

Search our weather history database for the weather conditions in past years. The results will help you decide how hot, cold, wet, or windy it might be!

Date:

Astronomy

Jan. 21, 2013 Rise Set
Actual Time 7:28 AM EST 4:47 PM EST
Civil Twilight 6:55 AM EST 5:19 PM EST
Nautical Twilight 6:19 AM EST 5:56 PM EST
Astronomical Twilight 5:44 AM EST 6:31 PM EST
Moon 12:24 PM EST (1/21) 2:55 AM EST (1/21)
Length of Visible Light 10h 23m
Length of Day
9h 18m
Waxing Gibbous, 75% of the Moon is Illuminated
Jan 21
Waxing Gibbous
Jan 26
Full
Feb 3
Last Quarter
Feb 10
New
Feb 17
First Quarter

Hourly Weather History & Observations

Time (EST) Temp. Windchill Dew Point Humidity Pressure Visibility Wind Dir Wind Speed Gust Speed Precip Events Conditions
12:00 AM 1.4 °F -11.3 °F -9.4 °F 61% 30.01 in 25.0 mi West 6.9 mph - N/A   Clear
1:00 AM -0.4 °F -15.7 °F -9.4 °F 66% 30.02 in 25.0 mi West 9.2 mph - N/A   Clear
2:00 AM -2.2 °F -10.4 °F -11.2 °F 66% 30.04 in 25.0 mi WSW 3.5 mph - N/A   Clear
3:00 AM -4.0 °F -14.6 °F -11.2 °F 71% 30.04 in 25.0 mi WSW 4.6 mph - N/A   Clear
4:00 AM -4.0 °F -14.6 °F -11.2 °F 71% 30.04 in 25.0 mi West 4.6 mph - N/A   Clear
5:00 AM -5.8 °F -16.7 °F -13.0 °F 71% 30.06 in 25.0 mi WSW 4.6 mph - N/A   Clear
6:00 AM -5.8 °F -19.9 °F -13.0 °F 71% 30.06 in 25.0 mi SW 6.9 mph - N/A   Clear
7:00 AM -9.4 °F -18.6 °F -14.8 °F 77% 30.08 in 25.0 mi West 3.5 mph - N/A   Clear
8:00 AM -9.4 °F -22.7 °F -14.8 °F 77% 30.10 in 45.0 mi West 5.8 mph - N/A   Partly Cloudy
9:00 AM -7.6 °F -16.5 °F -14.8 °F 71% 30.10 in 45.0 mi WSW 3.5 mph - N/A   Partly Cloudy
10:00 AM -5.8 °F -18.4 °F -14.8 °F 65% 30.12 in 45.0 mi West 5.8 mph - N/A   Partly Cloudy
11:00 AM -4.0 °F -14.6 °F -14.8 °F 60% 30.11 in 45.0 mi SW 4.6 mph - N/A   Mostly Cloudy
12:00 PM -2.2 °F -18.0 °F -14.8 °F 55% 30.08 in 45.0 mi South 9.2 mph - N/A   Mostly Cloudy
1:00 PM -2.2 °F -12.5 °F -14.8 °F 55% 30.06 in 45.0 mi SW 4.6 mph - N/A   Mostly Cloudy
2:00 PM -2.2 °F -15.6 °F -14.8 °F 55% 30.04 in 45.0 mi SSW 6.9 mph - N/A   Mostly Cloudy
3:00 PM -0.4 °F - -13.0 °F 55% 30.02 in 45.0 mi Calm Calm - N/A   Mostly Cloudy
4:00 PM -2.2 °F -12.5 °F -13.0 °F 60% 30.01 in 30.0 mi SSE 4.6 mph - N/A   Scattered Clouds
5:00 PM -4.0 °F - -14.8 °F 60% 30.02 in 25.0 mi Calm Calm - N/A   Mostly Cloudy
6:00 PM -5.8 °F - -13.0 °F 71% 30.02 in 25.0 mi Calm Calm - N/A   Overcast
7:00 PM -7.6 °F - -14.8 °F 71% 30.01 in 25.0 mi Calm Calm - N/A   Overcast
8:00 PM -5.8 °F -14.5 °F -13.0 °F 71% 30.00 in 25.0 mi ENE 3.5 mph - N/A   Mostly Cloudy
9:00 PM -5.8 °F -14.5 °F -13.0 °F 71% 30.01 in 15.0 mi NE 3.5 mph - N/A   Overcast
10:00 PM -4.0 °F -14.6 °F -13.0 °F 65% 29.99 in 25.0 mi North 4.6 mph - N/A   Overcast
11:00 PM -5.8 °F -16.7 °F -13.0 °F 71% 29.97 in 25.0 mi NNE 4.6 mph - N/A   Overcast